Location: Bruderhein
(53.8035°N, 112.9265°W)
Time: 03:19:43
(UTC+00:00)

BEESAT - Pass Details

Date: 03 April 2023
Orbit: 696 x 706 km, 98.5° (Epoch: 31 May)

Event Time Altitude Azimuth Distance (km) Brightness Sun altitude
Rises 06:38:07 0° 7° (N) 3,115 ? -29.8°
Reaches altitude 10° 06:41:00 10° 349° (N) 2,190 ? -29.9°
Maximum altitude 06:44:12 18° 307° (NW) 1,694 ? -30.0°
Enters shadow 06:47:09 11° 267° (W) 2,110 ? -30.1°
